Tracking 29892 objects as of 21-Nov-2024
HD Live streaming from Space Station
objects crossing your sky now

EKRAN 16

Track EKRAN 16 now!
EKRAN 16 is classified as:


NORAD ID: 18328
Int'l Code: 1987-073A
Perigee: 36,862.6 km
Apogee: 36,918.0 km
Inclination: 13.1 °
Period: 1,492.5 minutes
Semi major axis: 43261 km
RCS: 5.9402 m2 (large)
Launch date: September 3, 1987
Source: Commonwealth of Independent States (former USSR) (CIS)
Launch site: TYURATAM MISSILE AND SPACE COMPLEX (TTMTR)
Your satellite tracking list
Your tracking list is empty




NASA's NSSDC Master Catalog

Two Line Element Set (TLE):
1 18328U 87073A   24325.83831867 -.00000073  00000-0  00000-0 0  9998
2 18328  13.0585 331.5288 0006406 251.9859 224.4733  0.96483700131480
Source of the keplerian elements: AFSPC